This is the latest recevied weather packets stored in our database for station/object KF4ERV-4. If no packets are shown the sender has not sent any weather packets the latest 1 day(s).
| Time | Temp. | Humidity | Pressure | Rain* | Wind** | Luminosity | Snow |
|---|---|---|---|---|---|---|---|
| 1778045399 | 11.67° C | 83% | 1008 hPa | 6.86 mm | 0 m/s | - | - |
| 1778045092 | 12.22° C | 84% | 1008 hPa | 7.62 mm | 0 m/s | - | - |
| 1778045030 | 12.78° C | 85% | 1007.9 hPa | 7.62 mm | 0 m/s | - | - |
| 1778044992 | 12.78° C | 85% | 1007.9 hPa | 7.62 mm | 0 m/s | - | - |
| 1778044845 | 12.78° C | 85% | 1007.9 hPa | 7.62 mm | 0 m/s | - | - |
| 1778044794 | 12.78° C | 85% | 1007.9 hPa | 7.62 mm | 0 m/s | - | - |
| 1778044702 | 13.33° C | 88% | 1007.3 hPa | 7.37 mm | 0 m/s | - | - |
| 1778044497 | 13.33° C | 88% | 1007.3 hPa | 7.37 mm | 0 m/s | - | - |
| 1778044411 | 15° C | 90% | 1007 hPa | 6.35 mm | 0 m/s | - | - |
| 1778044190 | 15° C | 90% | 1007 hPa | 6.35 mm | 0 m/s | - | - |
| 1778044121 | 15° C | 90% | 1007 hPa | 5.84 mm | 0 m/s | - | - |
| 1778044052 | 15° C | 91% | 1007 hPa | 5.59 mm | 0 m/s | - | - |
| 1778044009 | 15° C | 91% | 1007 hPa | 5.59 mm | 0 m/s | - | - |
| 1778043893 | 15° C | 90% | 1007 hPa | 5.84 mm | 0 m/s | - | - |
| 1778043596 | 15° C | 91% | 1007 hPa | 5.59 mm | 0 m/s | - | - |
| 1778043551 | 15° C | 91% | 1007 hPa | 5.59 mm | 0 m/s | - | - |
| 1778043301 | 15° C | 91% | 1007.2 hPa | 4.32 mm | 0 m/s | - | - |
| 1778043298 | 15° C | 91% | 1007 hPa | 5.59 mm | 0 m/s | - | - |
| 1778043253 | 15° C | 90% | 1007 hPa | 5.33 mm | 0 m/s | - | - |
| 1778042991 | 15° C | 90% | 1007 hPa | 5.33 mm | 0 m/s | - | - |
| 1778042961 | 15° C | 90% | 1007.1 hPa | 5.08 mm | 0 m/s | - | - |
| 1778042673 | 15° C | 91% | 1007.2 hPa | 4.32 mm | 0 m/s | - | - |
| 1778042397 | 15° C | 91% | 1007.2 hPa | 4.32 mm | 0 m/s | - | - |
| 1778042235 | 15° C | 91% | 1007.3 hPa | 3.05 mm | 0 m/s | - | - |
| 1778042092 | 15° C | 91% | 1007 hPa | 4.32 mm | 0 m/s | - | - |
* Rain latest hour (hover to see other rain measurements)
** Current wind speed in m/s (hover to see current wind gust speed)